Info for pilots

Image

Airfield Info:

EBUL
N51 08.7 - E003 28.6
ELEV 95' / 29m
RWY 07 / 25
799m * 45m (CIV) - 2980m (MIL)
Ursel Radio 135.125
Tel Aero Club Brugge : +32(0)9 374 25 75
Tel Vliegclub Ursel : +32(0)9 374 12 90

Operational Hours
FRI: 14h00LT - SS+30 MIN
SAT, SUN and HOL: TKOF and LDG: 10h00LT - SS+30 MIN
After 20h00LT to SS+30 MIN: only LDG allowed (PN)

Local Traffic Regulations
The use of the AD is subject to PPR from the OPR;
AD given in concession to the CIV club outside MIL ACT;
Solo training flights can only be performed after two reconnaissance flights with instructor. The solo training flight must be performed within six weeks after the first reconnaissance flight;
Jet aircraft operations not allowed.

Obstacles:
trees between 10M AGL and 22M AGL, caution when crosswind:
North of the RWY, 75M from CL, along the whole length of the RWY;
South of the RWY, 75M from CL, and at THR RWY 25 from THR RWY 07 to 140M east of THR RWY 07



Image

Image

Watch out!

Flight Procedures
RWY 07 and 25 left hand circuit, 1.200 FT QNH

Image

Taxi procedures:
RWY 07 (TKOF):
taxi on the north side of the RWY to the HLDG position of RWY 07

RWY 07 (LDG):
after landing roll out to the second intersection (THR RWY 25), turn left, turn left again, taxi via the TWY to the first intersection, turn left, cross the RWY (check for landing ACFT), taxi on the south side of the RWY to the AD reporting office

RWY 25 (TKOF):
taxi on the north side of the first intersection, turn left, next turn right, taxi via the TWY to the second intersection, turn right, taxi to the HLDG of RWY 25

RWY 25 (LDG):
after landing roll out to the end of the RWY, taxi on the south side of the RWY to the AD reporting office.





Image

Taxi & Circuit?

Image
Image
Image
Image

Current Metars - Auto refresh

EBOS - Oostende
2018/11/19 20:20 EBOS 192020Z 07021KT 9999 FEW027 04/00 Q1014 TEMPO 07018G28KT


EBAW - Antwerpen
2018/11/19 20:20 EBAW 192020Z 06012KT 9999 SCT020 04/M00 Q1014 TEMPO 06015G25KT


EBBR - Brussel
2018/11/19 20:20 EBBR 192020Z 06014KT 9999 SCT028 04/M00 Q1013 NOSIG

Source : NOAA.GOV

Current TAFs - Auto refresh

EBOS - Oostende
2018/11/19 18:27 TAF EBOS 191710Z 1918/2024 07015KT 9999 SCT020 BKN040 TEMPO 1918/2003 07018G30KT PROB30 TEMPO 2003/2018 4500 -SHRASN BKN014TCU

EBAW - Antwerpen
2018/11/19 21:28 TAF EBAW 192020Z 1921/2006 06014KT 9999 SCT020 PROB30 TEMPO 1921/2006 06015G26KT

EBBR - Brussel
2018/11/19 18:28 TAF EBBR 191710Z 1918/2024 06012KT 9999 SCT020 BKN040 PROB30 TEMPO 1918/1921 06015G25KT 4000 SHRA BKN014TCU PROB40 TEMPO 1921/2015 4000 -SHSNRA BKN014 PROB30 TEMPO 2005/2012 2500 -SHSN BKN008

Source : NOAA.GOV
Image

Webcam

Direction runway 07 :